[[{"header":{"parameterUnit":"m.s-1","parameterCategory":1,"la1":30.2991,"la2":30.254,"lo1":-89.0895,"lo2":-89.0444,"dy":0.0017,"dx":0.0017,"nx":28,"ny":28,"refTime":"2025-08-04T09:00:00:Z","depth":0,"parameterNumber":2,"parameterNumberName":"U-component_of_WINDS"},"data":[0,0,0,0,0,0,0,0,0,0,0,0,0,0,0,0,0,0,0,0,0,0,0,0,0,0,0,0,0,0,0,0,0,0,0,0,0,0,0,0,0,0,0,0,0,0,0,0,0,0,0,0,0,0,0,0,0,0,-3.511,-3.511,0,-3.5061,-3.5061,-3.506,-3.5014,-3.5013,-3.5013,-3.5012,-3.4958,-3.4957,-3.4956,0,0,0,0,0,0,0,0,0,0,0,0,0,-3.5161,-3.516,-3.511,-3.511,-3.5109,-3.5061,-3.5061,-3.506,-3.5014,-3.5013,-3.5012,-3.5012,-3.4958,-3.4957,-3.4956,0,0,0,0,0,0,0,0,0,0,0,0,0,-3.5128,-3.516,-3.511,-3.508,-3.5077,-3.5061,-3.5061,-3.506,-3.5014,-3.5013,-3.5012,-3.5011,-3.4958,-3.4957,-3.4956,-3.4964,0,0,-3.4951,-3.4951,0,0,0,0,0,0,0,0,-3.513,-3.5126,-3.5085,-3.5082,-3.5079,-3.5043,-3.5058,-3.5028,-3.5014,-3.5038,-3.5012,-3.5011,-3.4986,-3.4983,-3.4975,-3.4962,-3.4959,-3.4951,-3.495,-3.495,-3.4949,0,0,0,0,0,0,0,-3.5132,-3.5128,-3.5091,-3.5085,-3.5081,-3.5068,-3.5063,-3.5052,-3.5017,-3.5036,-3.5032,-3.5027,-3.4984,-3.4977,-3.4973,-3.4958,-3.4951,-3.495,-3.4949,-3.4949,-3.4949,-3.495,0,0,0,0,0,0,-3.5139,-3.513,-3.5092,-3.5089,-3.5103,-3.5068,-3.5062,-3.5055,-3.5017,-3.5011,-3.5028,-3.5025,-3.4979,-3.4975,-3.4971,-3.4979,-3.495,-3.4949,-3.4948,-3.4948,-3.4949,-3.495,0,0,0,0,0,0,-3.5141,-3.5136,-3.5094,-3.5109,-3.5102,-3.5068,-3.5061,-3.5055,-3.5047,-3.5012,-3.5005,-3.5027,-3.4979,-3.4973,-3.4967,-3.4976,-3.4948,-3.4947,-3.4947,-3.4949,-3.495,-3.4994,0,0,0,0,0,0,-3.5142,-3.5137,-3.5141,-3.5109,-3.5102,-3.5091,-3.5062,-3.5054,-3.5045,-3.5041,-3.5009,-3.5002,-3.4977,-3.4969,-3.4965,-3.4974,-3.4946,-3.4946,-3.4948,-3.4949,-3.4991,-3.4996,-3.5,0,0,0,0,0,-3.5144,-3.5154,-3.5141,-3.5137,-3.5106,-3.5092,-3.5088,-3.506,-3.5046,-3.5049,-3.5026,-3.5003,-3.4976,-3.4969,-3.4964,-3.4972,-3.4945,-3.4947,-3.4949,-3.4989,-3.4995,-3.5,0,0,0,0,0,0,-3.5186,-3.515,-3.5135,-3.5135,-3.5117,-3.5084,-3.5087,-3.5067,-3.5052,-3.5049,-3.5014,-3.5007,-3.5004,-3.4987,-3.498,-3.4978,-3.4957,-3.4959,-3.4989,-3.4995,-3.5,-3.5003,-3.4944,0,0,0,0,0,-3.5196,-3.5189,-3.5157,-3.516,-3.5152,-3.5122,-3.5114,-3.5095,-3.5074,-3.5066,-3.5043,-3.5023,-3.5009,-3.5001,-3.4987,-3.4989,-3.498,-3.4992,-3.4997,-3.5001,-3.5002,-3.5001,-3.5006,-3.4956,-3.4956,-3.4956,0,0,-3.5215,-3.5194,-3.5192,-3.5168,-3.5152,-3.5145,-3.5115,-3.5108,-3.5102,-3.5064,-3.5057,-3.5039,-3.5014,-3.5012,-3.501,-3.4998,-3.5014,-3.5003,-3.5007,-3.5006,-3.5003,-3.5008,-3.5012,-3.4958,-3.4957,-3.4957,0,0,-3.5247,-3.5231,-3.5231,-3.5216,-3.5193,-3.5172,-3.5173,-3.5143,-3.513,-3.5123,-3.5094,-3.5086,-3.5064,-3.5047,-3.5036,-3.5062,-3.504,-3.5058,-3.5082,-3.5082,-3.5086,-3.5089,-3.5098,-3.5101,-3.506,-3.506,-3.506,0,-3.5273,-3.5262,-3.5234,-3.5229,-3.5219,-3.5187,-3.5187,-3.5173,-3.5146,-3.5139,-3.5127,-3.5099,-3.508,-3.5073,-3.508,-3.5072,-3.507,-3.5061,-3.5088,-3.5091,-3.5093,-3.5101,-3.5104,-3.5062,-3.5062,-3.5061,-3.5061,0,-3.5295,-3.5288,-3.5291,-3.5267,-3.5258,-3.5256,-3.5227,-3.522,-3.5202,-3.5182,-3.5174,-3.5151,-3.5131,-3.5128,-3.5109,-3.5119,-3.5112,-3.5095,-3.5073,-3.5101,-3.5107,-3.511,-3.5065,-3.5064,-3.5064,-3.5063,0,0,-3.535,-3.5312,-3.5314,-3.5303,-3.5275,-3.5268,-3.5264,-3.5246,-3.5241,-3.5223,-3.5218,-3.5201,-3.5185,-3.5172,-3.5151,-3.5151,-3.5173,-3.5133,-3.5132,-3.5141,-3.518,-3.5193,-3.5197,-3.5159,-3.5159,-3.5159,-3.5182,0,-3.5376,-3.5369,-3.5344,-3.5343,-3.5335,-3.5305,-3.5301,-3.5283,-3.5265,-3.5255,-3.5234,-3.5223,-3.5202,-3.5195,-3.5193,-3.5171,-3.518,-3.5169,-3.5152,-3.5152,-3.5159,-3.5201,-3.5214,-3.5237,-3.5185,-3.5185,-3.5185,0,-3.5405,-3.5391,-3.539,-3.5363,-3.5359,-3.5356,-3.5338,-3.5329,-3.5308,-3.5295,-3.5281,-3.5259,-3.5251,-3.5232,-3.5221,-3.5214,-3.5206,-3.5194,-3.5194,-3.5191,-3.517,-3.5197,-3.5243,-3.5246,-3.5189,-3.5189,-3.5189,0,-3.5445,-3.5426,-3.5422,-3.5414,-3.5382,-3.5381,-3.5367,-3.5345,-3.5336,-3.532,-3.5314,-3.5297,-3.5287,-3.5274,-3.5247,-3.5235,-3.5239,-3.5217,-3.5226,-3.5227,-3.5227,-3.5227,-3.5272,-3.5224,-3.5224,-3.5224,-3.5224,0,-3.5476,-3.5476,-3.544,-3.5438,-3.5437,-3.5408,-3.5408,-3.5391,-3.5372,-3.5366,-3.5338,-3.5332,-3.5297,-3.5286,-3.5265,-3.5259,-3.5255,-3.5243,-3.5237,-3.5245,-3.5246,-3.5238,-3.5236,-3.5225,-3.5225,-3.5224,-3.5224,0,-3.552,-3.5496,-3.549,-3.5461,-3.5454,-3.5454,-3.5429,-3.5425,-3.5406,-3.5398,-3.5394,-3.5363,-3.535,-3.5322,-3.53,-3.5286,-3.5284,-3.5274,-3.5292,-3.5288,-3.5299,-3.5298,-3.5338,-3.5342,-3.5293,-3.5294,-3.5294,0,-3.554,-3.554,-3.5512,-3.5506,-3.5494,-3.5485,-3.5476,-3.5448,-3.544,-3.5416,-3.5415,-3.5399,-3.5385,-3.5365,-3.534,-3.5323,-3.5312,-3.5327,-3.5309,-3.5317,-3.5311,-3.5311,-3.5311,-3.5331,-3.5332,-3.5332,-3.5333,0,-3.558,-3.5568,-3.5557,-3.5543,-3.5533,-3.552,-3.5505,-3.5501,-3.5469,-3.5461,-3.5448,-3.5437,-3.5416,-3.54,-3.538,-3.5364,-3.5343,-3.5339,-3.534,-3.5348,-3.5358,-3.5352,-3.5302,-3.5338,-3.5337,-3.5337,-3.5337,-3.5337,-3.5612,-3.5611,-3.5591,-3.5579,-3.5565,-3.5552,-3.5547,-3.5528,-3.5517,-3.5498,-3.5482,-3.547,-3.5448,-3.5419,-3.5405,-3.5394,-3.5384,-3.5385,-3.5386,-3.5386,-3.5389,-3.536,-3.539,-3.539,-3.539,-3.539,-3.539,0,-3.565,-3.5636,-3.5626,-3.5606,-3.5597,-3.558,-3.5562,-3.5555,-3.5546,-3.5528,-3.5515,-3.55,-3.5485,-3.5459,-3.5442,-3.5438,-3.5428,-3.5434,-3.5434,-3.543,-3.54,-3.5401,-3.5443,-3.5443,-3.5443,-3.5443,-3.5443,-3.5443,-3.5668,-3.5664,-3.565,-3.5639,-3.5624,-3.5614,-3.5605,-3.5592,-3.5578,-3.5563,-3.5551,-3.5535,-3.5513,-3.5494,-3.548,-3.5472,-3.5467,-3.5476,-3.5466,-3.5438,-3.5433,-3.5428,-3.5428,-3.5476,-3.5476,-3.5497,-3.5497,-3.5497]},{"header":{"parameterUnit":"m.s-1","parameterCategory":1,"la1":30.2991,"la2":30.254,"lo1":-89.0895,"lo2":-89.0444,"dy":0.0017,"dx":0.0017,"nx":28,"ny":28,"refTime":"2025-08-04T09:00:00:Z","depth":0,"parameterNumber":3,"parameterNumberName":"V-component_of_WINDS"},"data":[0,0,0,0,0,0,0,0,0,0,0,0,0,0,0,0,0,0,0,0,0,0,0,0,0,0,0,0,0,0,0,0,0,0,0,0,0,0,0,0,0,0,0,0,0,0,0,0,0,0,0,0,0,0,0,0,0,0,1.3044,1.3042,0,1.2834,1.2832,1.283,1.2729,1.2729,1.2729,1.2729,1.251,1.2505,1.2499,0,0,0,0,0,0,0,0,0,0,0,0,0,1.3356,1.3351,1.3044,1.3042,1.3039,1.2835,1.2832,1.2829,1.2729,1.2729,1.2729,1.2729,1.2512,1.2505,1.2498,0,0,0,0,0,0,0,0,0,0,0,0,0,1.3191,1.3349,1.3045,1.2964,1.2955,1.2835,1.2832,1.2828,1.2729,1.2729,1.2729,1.2729,1.2515,1.2506,1.2497,1.244,0,0,1.247,1.2466,0,0,0,0,0,0,0,0,1.32,1.318,1.2979,1.297,1.2959,1.2808,1.2862,1.2698,1.2729,1.2815,1.2729,1.2729,1.2609,1.2592,1.2553,1.243,1.242,1.2469,1.2464,1.246,1.2458,0,0,0,0,0,0,0,1.3212,1.3188,1.2961,1.2976,1.2964,1.2938,1.2915,1.283,1.2714,1.2807,1.2799,1.2776,1.2604,1.2561,1.2547,1.2417,1.247,1.2462,1.2456,1.2453,1.2239,1.2239,0,0,0,0,0,0,1.3237,1.3198,1.2968,1.2955,1.3083,1.2933,1.2907,1.2856,1.2714,1.2693,1.2776,1.2772,1.2577,1.2557,1.2539,1.2463,1.246,1.2452,1.2447,1.2239,1.2239,1.2239,0,0,0,0,0,0,1.3244,1.3217,1.2976,1.3074,1.3042,1.2927,1.2872,1.2852,1.281,1.2691,1.2669,1.2755,1.2576,1.2551,1.2466,1.2454,1.2448,1.244,1.224,1.2239,1.2239,1.2311,0,0,0,0,0,0,1.3253,1.322,1.3198,1.3075,1.3037,1.2908,1.2871,1.2848,1.2795,1.2788,1.2665,1.2645,1.2574,1.248,1.2457,1.2442,1.2433,1.224,1.224,1.2239,1.2309,1.2313,1.2316,0,0,0,0,0,1.3265,1.3225,1.3197,1.317,1.3006,1.2907,1.2885,1.2806,1.2795,1.2771,1.2695,1.2649,1.246,1.2472,1.2446,1.2427,1.2241,1.224,1.2239,1.2308,1.2312,1.2316,0,0,0,0,0,0,1.3347,1.3207,1.3174,1.3094,1.3014,1.289,1.2857,1.2813,1.2733,1.273,1.2634,1.2607,1.2531,1.247,1.2487,1.2366,1.2346,1.234,1.2407,1.2411,1.2414,1.2429,1.2426,0,0,0,0,0,1.3356,1.3288,1.317,1.311,1.3072,1.2972,1.2926,1.2872,1.2784,1.2749,1.2667,1.2583,1.2504,1.2454,1.2376,1.2301,1.2273,1.2276,1.228,1.2283,1.2278,1.2235,1.2235,1.2236,1.2236,1.2236,0,0,1.3373,1.3289,1.3251,1.3124,1.3056,1.2987,1.2944,1.2872,1.282,1.2738,1.2653,1.259,1.249,1.2411,1.2371,1.2358,1.2273,1.2282,1.2286,1.2278,1.2234,1.2235,1.2235,1.2235,1.2235,1.2235,0,0,1.3369,1.3299,1.3242,1.3175,1.3073,1.3008,1.2995,1.2879,1.2835,1.2749,1.2686,1.2623,1.249,1.2421,1.2369,1.2344,1.2298,1.2322,1.2339,1.2299,1.2298,1.2298,1.2289,1.2287,1.2318,1.2318,1.2318,0,1.3403,1.3298,1.3218,1.3151,1.3097,1.3023,1.2965,1.2903,1.278,1.2745,1.2732,1.2566,1.2493,1.2397,1.2391,1.2352,1.2333,1.2333,1.2305,1.2304,1.2302,1.2292,1.2289,1.2321,1.2321,1.232,1.232,0,1.3345,1.3274,1.324,1.3125,1.3068,1.3006,1.2916,1.2868,1.2821,1.2757,1.2671,1.2582,1.2485,1.2459,1.2411,1.2356,1.2352,1.2324,1.2302,1.2307,1.2296,1.2292,1.2326,1.2325,1.2324,1.2323,0,0,1.3383,1.3228,1.3217,1.3165,1.3049,1.2991,1.2927,1.2834,1.2794,1.2713,1.2656,1.2548,1.2522,1.2463,1.2407,1.2372,1.2359,1.2348,1.2345,1.2353,1.2294,1.2314,1.2311,1.233,1.2328,1.2328,1.2302,0,1.3362,1.3243,1.3171,1.3082,1.3015,1.2945,1.2889,1.2812,1.2752,1.2686,1.2619,1.2543,1.2516,1.248,1.2442,1.2369,1.2345,1.237,1.2274,1.2272,1.23,1.2305,1.2326,1.2306,1.2297,1.2296,1.2296,0,1.3321,1.3244,1.3148,1.3042,1.3011,1.2962,1.2872,1.2811,1.2722,1.2681,1.2618,1.2562,1.2491,1.2478,1.2379,1.2397,1.2354,1.2313,1.231,1.2296,1.2283,1.2291,1.2298,1.2294,1.2288,1.2289,1.229,0,1.3358,1.323,1.3157,1.3115,1.2989,1.2956,1.2902,1.2814,1.2763,1.2685,1.2651,1.2565,1.2518,1.2453,1.2376,1.2373,1.2285,1.2264,1.2247,1.2249,1.2229,1.2231,1.2228,1.2205,1.2205,1.2205,1.2206,0,1.3341,1.3285,1.3172,1.3127,1.3063,1.2981,1.292,1.286,1.2783,1.2724,1.2659,1.2606,1.2509,1.2443,1.2383,1.231,1.229,1.2254,1.2238,1.2258,1.2263,1.2227,1.2226,1.2205,1.2205,1.2205,1.2205,0,1.337,1.3292,1.3208,1.3097,1.3068,1.3026,1.293,1.2884,1.2822,1.2749,1.2727,1.263,1.255,1.2468,1.2359,1.2319,1.2248,1.2227,1.2278,1.2269,1.2256,1.2258,1.2228,1.222,1.2205,1.2206,1.2206,0,1.3363,1.3319,1.3205,1.3162,1.311,1.3042,1.2991,1.291,1.286,1.2758,1.2724,1.264,1.2568,1.2443,1.2362,1.2279,1.2255,1.2251,1.2241,1.2264,1.2253,1.2257,1.2252,1.2253,1.2253,1.2254,1.2254,0,1.336,1.3325,1.3254,1.3172,1.3114,1.3044,1.2972,1.294,1.2845,1.2792,1.2711,1.2656,1.2547,1.2464,1.2372,1.2315,1.2269,1.2259,1.225,1.2269,1.23,1.2283,1.2285,1.2259,1.2258,1.2258,1.2258,1.2257,1.3369,1.3328,1.3242,1.3166,1.3105,1.304,1.2991,1.2925,1.2856,1.2762,1.2719,1.2637,1.2552,1.2424,1.2369,1.2304,1.2291,1.2278,1.2275,1.2273,1.2278,1.2313,1.2287,1.2287,1.2286,1.2286,1.2286,0,1.3362,1.3304,1.3236,1.3139,1.308,1.3045,1.2964,1.2917,1.2847,1.2772,1.2704,1.2611,1.2531,1.2446,1.2361,1.2325,1.2302,1.2306,1.2306,1.2294,1.2294,1.231,1.2326,1.2326,1.2326,1.2326,1.2326,1.2326,1.3351,1.3279,1.3234,1.3131,1.3073,1.2994,1.2951,1.2891,1.2831,1.2732,1.2666,1.2612,1.2532,1.2442,1.2367,1.2344,1.2315,1.2325,1.2296,1.2297,1.2294,1.2291,1.2305,1.232,1.232,1.23,1.23,1.23]}]]